Regional Weather Roundup
Issued by NWS

Home | Current Version | Previous Version | Graphics & Text | Print | Product List | Glossary On
Versions: 1 2 3 4 5 6 7 8 9 10 11 12 13 14 15 16 17 18 19 20 21 22 23 24 25 26 27 28 29 30 31 32 33 34 35 36 37 38 39 40 41 42 43 44 45 46 47 48 49 50
740
ASUS45 KSLC 200410
RWRUT

UTAH REGIONAL WEATHER ROUNDUP
NATIONAL WEATHER SERVICE SALT LAKE CITY UT
900 PM MST SUN NOV 19 2017

UTZ001>011-023>025-200500-

NORTHERN UTAH

CITY           SKY/WX    TMP DP  RH WIND       PRES   REMARKS
BRIGHAM CITY   PTCLDY    31  27  84 CALM      30.10F
HILL AFB       MOCLDY    32  23  70 E10       30.09S WCI  23
LOGAN          MOCLDY    31  24  75 CALM      30.09F
OGDEN          PTCLDY    33  25  72 NE3       30.09S
SALT LAKE CITY MOCLDY    36  31  82 N7        30.10R WCI  30
TOOELE VALLEY  MOCLDY    30  28  93 CALM      30.11S
WENDOVER       CLOUDY    33  25  72 CALM      30.12S
HEBER CITY       N/A     27  21  80 E3        30.09F
WEST JORDAN    MOCLDY    33  30  88 NW8       30.10R WCI  26

$$

UTZ011>015-024>027-200500-

CENTRAL/NORTHEAST UTAH

CITY           SKY/WX    TMP DP  RH WIND       PRES   REMARKS
PROVO AIRPORT  MOCLDY    31  28  89 CALM      30.11S
MOAB/CANYONLAN MOCLDY    28   6  39 W5        30.18F WCI  23
DELTA          MOCLDY    30  18  59 CALM      30.11R
PRICE          MOCLDY    27   6  41 NE6       30.18F WCI  20
RICHFIELD      CLEAR     28  25  86 CALM      30.15R
ROOSEVELT      CLOUDY    23  14  68 SW6       30.18S WCI  16
VERNAL         CLOUDY    23  13  65 W5        30.15F WCI  17

$$

UTZ013>016-019>022-027-200500-

SOUTHERN UTAH

CITY           SKY/WX    TMP DP  RH WIND       PRES   REMARKS
BRYCE CANYON   PTCLDY    16   8  71 SW5       30.22S WCI   9
CEDAR CITY     MOCLDY    42   7  23 SE9       30.13R
MILFORD        CLOUDY    32  15  49 S3        30.11R
ST GEORGE      MOCLDY    46   8  21 NE3       30.12R
HANKSVILLE     CLOUDY    32   7  34 N3        30.23F
KANAB          CLEAR     34   9  35 N8        30.21F WCI  27
BLANDING         N/A     28   5  37 NE3       30.26F

$$

REGIONAL REPORTS     COLORADO/ARIZONA

CITY           SKY/WX    TMP DP  RH WIND       PRES   REMARKS
CRAIG, CO      CLOUDY    17  12  80 W3        30.18R
GRAND JUNCTION CLOUDY    28  13  53 SE6       30.22S WCI  22
RIFLE, CO      CLOUDY    25  20  81 E5        30.24R WCI  19
MONTROSE, CO   CLOUDY    25  20  81 SE7       30.26R WCI  17
CORTEZ, CO     CLOUDY    21  11  65 NE9       30.23S WCI  11
COLORADO CITY    N/A     32   7  34 SE7       30.18R WCI  26
PAGE, AZ       PTCLDY    39  12  33 S3        30.19S
GRAND CANYON   PTCLDY    20  -2  38 E3        30.22R
KINGMAN, AZ    PTCLDY    36   4  26 CALM      30.12R
FLAGSTAFF, AZ  PTCLDY    25   2  37 CALM      30.22S

$$

REGIONAL REPORTS    NEVADA/IDAHO/WYOMING

CITY           SKY/WX    TMP DP  RH WIND       PRES   REMARKS
LAS VEGAS, NV  CLOUDY    52   9  17 SW5       30.08F
ELY, NY        CLOUDY    33   3  28 SE3       30.14R
ELKO, NV       CLOUDY    35  27  72 E3        30.08S
POCATELLO, ID  CLOUDY    33  26  75 N7        30.04F WCI  27
BURLEY, ID     MOCLDY    32  27  81 SE3       30.00S
FORT BRIDGER,    N/A     29  16  58 W3        30.11S
EVANSTON, WY   CLOUDY    26  17  68 SW8       30.09R WCI  18
ROCK SPRINGS,  CLOUDY    24  16  71 W8        30.08F WCI  15

$$




USA.gov is the U.S. government's official web portal to all federal, state and local government web resources and services.